[[{"header":{"parameterUnit":"m.s-1","parameterCategory":1,"la1":30.2991,"la2":30.254,"lo1":-89.0895,"lo2":-89.0444,"dy":0.0017,"dx":0.0017,"nx":28,"ny":28,"refTime":"2024-05-20T21:00:00:Z","depth":0,"parameterNumber":2,"parameterNumberName":"U-component_of_WINDS"},"data":[0,0,0,0,0,0,0,0,0,0,0,0,0,0,0,0,0,0,0,0,0,0,0,0,0,0,0,0,0,0,0,0,0,0,0,0,0,0,0,0,0,0,0,0,0,0,0,0,0,0,0,0,0,0,0,0,0,0,-3.3452,-3.3452,0,-3.3478,-3.3478,-3.3478,-3.3414,-3.3412,-3.341,-3.3408,-3.3433,-3.3435,-3.3438,0,0,0,0,0,0,0,0,0,0,0,0,0,-3.3345,-3.3347,-3.3452,-3.3452,-3.3452,-3.3478,-3.3478,-3.3478,-3.3414,-3.3412,-3.3409,-3.3407,-3.3432,-3.3435,-3.3438,0,0,0,0,0,0,0,0,0,0,0,0,0,-3.3383,-3.3348,-3.3452,-3.3423,-3.3421,-3.3478,-3.3478,-3.3478,-3.3415,-3.3412,-3.3409,-3.3406,-3.3431,-3.3434,-3.3438,-3.3522,0,0,-3.345,-3.3451,0,0,0,0,0,0,0,0,-3.3381,-3.3387,-3.3427,-3.3425,-3.3423,-3.3439,-3.3449,-3.3493,-3.3416,-3.3417,-3.3408,-3.3404,-3.3437,-3.344,-3.3452,-3.3523,-3.3525,-3.345,-3.3452,-3.3454,-3.3455,0,0,0,0,0,0,0,-3.3378,-3.3385,-3.3462,-3.3428,-3.3425,-3.3409,-3.3411,-3.3457,-3.3444,-3.3417,-3.3412,-3.3416,-3.3435,-3.3448,-3.3452,-3.3525,-3.345,-3.3453,-3.3456,-3.3457,-3.3667,-3.367,0,0,0,0,0,0,-3.338,-3.3384,-3.3461,-3.3463,-3.3394,-3.3413,-3.3416,-3.3437,-3.3443,-3.3441,-3.3419,-3.3413,-3.3443,-3.3447,-3.3452,-3.3551,-3.3454,-3.3458,-3.346,-3.3664,-3.3668,-3.3671,0,0,0,0,0,0,-3.3377,-3.3387,-3.346,-3.3422,-3.343,-3.3418,-3.3443,-3.3439,-3.3452,-3.3445,-3.3442,-3.3434,-3.3441,-3.3447,-3.3506,-3.3551,-3.3459,-3.3463,-3.366,-3.3665,-3.3669,-3.3749,0,0,0,0,0,0,-3.3375,-3.3387,-3.3419,-3.3423,-3.3432,-3.3513,-3.3446,-3.3442,-3.3459,-3.3452,-3.3459,-3.3457,-3.3439,-3.35,-3.3509,-3.3555,-3.3466,-3.3656,-3.3662,-3.3668,-3.3742,-3.3756,-3.3768,0,0,0,0,0,-3.3371,-3.344,-3.3421,-3.3431,-3.3472,-3.3516,-3.3521,-3.35,-3.3463,-3.3495,-3.349,-3.3457,-3.3545,-3.3507,-3.3516,-3.3564,-3.3653,-3.366,-3.3667,-3.3737,-3.3754,-3.3768,0,0,0,0,0,0,-3.344,-3.344,-3.3419,-3.3491,-3.3504,-3.3505,-3.3545,-3.3519,-3.3542,-3.3534,-3.3506,-3.3508,-3.3572,-3.3574,-3.3531,-3.3645,-3.3592,-3.3602,-3.3642,-3.3658,-3.367,-3.3668,-3.3469,0,0,0,0,0,-3.3464,-3.35,-3.3498,-3.3562,-3.357,-3.3556,-3.3575,-3.3557,-3.3569,-3.3574,-3.3574,-3.3587,-3.3617,-3.3638,-3.3665,-3.3743,-3.3743,-3.378,-3.3793,-3.3803,-3.3812,-3.3853,-3.3869,-3.3696,-3.3695,-3.3695,0,0,-3.3513,-3.3517,-3.3542,-3.3576,-3.3584,-3.3621,-3.3561,-3.3603,-3.3631,-3.358,-3.3636,-3.3636,-3.3648,-3.3717,-3.3747,-3.372,-3.386,-3.3813,-3.3821,-3.3824,-3.3862,-3.3878,-3.3893,-3.3701,-3.37,-3.3699,0,0,-3.3622,-3.3629,-3.3683,-3.3693,-3.3706,-3.3697,-3.371,-3.3716,-3.3714,-3.377,-3.3733,-3.3765,-3.3818,-3.3828,-3.384,-3.3954,-3.3924,-3.3964,-3.403,-3.4071,-3.4084,-3.4096,-3.4136,-3.4151,-3.3973,-3.3973,-3.3973,0,-3.3681,-3.3736,-3.3714,-3.3759,-3.3775,-3.3732,-3.3786,-3.3797,-3.3819,-3.383,-3.38,-3.3866,-3.3872,-3.3942,-3.397,-3.3981,-3.3995,-3.3962,-3.4084,-3.4096,-3.4107,-3.4145,-3.416,-3.3978,-3.3977,-3.3977,-3.3976,0,-3.3808,-3.3847,-3.3889,-3.3912,-3.3933,-3.3982,-3.3967,-3.3991,-3.3972,-3.3966,-3.4023,-3.4028,-3.4056,-3.4072,-3.4053,-3.4139,-3.4122,-3.4089,-3.4035,-3.4129,-3.4163,-3.4178,-3.3984,-3.3983,-3.3981,-3.398,0,0,-3.3959,-3.397,-3.3986,-3.3996,-3.4008,-3.4038,-3.4085,-3.4114,-3.4134,-3.4151,-3.419,-3.4236,-3.4206,-3.422,-3.4202,-3.4238,-3.4327,-3.42,-3.42,-3.4223,-3.4422,-3.4446,-3.4463,-3.4308,-3.4311,-3.4313,-3.442,0,-3.4066,-3.4148,-3.413,-3.421,-3.4246,-3.4207,-3.4248,-3.426,-3.4256,-3.4286,-3.4281,-3.4314,-3.4272,-3.428,-3.4314,-3.4309,-3.4367,-3.4302,-3.4343,-3.4344,-3.434,-3.4481,-3.4507,-3.4608,-3.4434,-3.4436,-3.4438,0,-3.4201,-3.4224,-3.4308,-3.4315,-3.433,-3.4367,-3.4392,-3.4421,-3.4433,-3.4428,-3.4444,-3.442,-3.4467,-3.4414,-3.4477,-3.4434,-3.4449,-3.445,-3.4454,-3.4455,-3.4396,-3.4486,-3.464,-3.4655,-3.4459,-3.4458,-3.4456,0,-3.4302,-3.4354,-3.4411,-3.4421,-3.4431,-3.4458,-3.4463,-3.4473,-3.4491,-3.4513,-3.4524,-3.4551,-3.4565,-3.4586,-3.457,-3.4533,-3.4636,-3.4581,-3.4632,-3.4632,-3.4654,-3.4653,-3.4812,-3.4667,-3.4666,-3.4666,-3.4666,0,-3.4422,-3.4475,-3.4456,-3.4492,-3.455,-3.4529,-3.4587,-3.4587,-3.4597,-3.4631,-3.4599,-3.4631,-3.4608,-3.4639,-3.4627,-3.4681,-3.4688,-3.4684,-3.468,-3.4686,-3.4687,-3.4695,-3.4688,-3.467,-3.4669,-3.4668,-3.4668,0,-3.4543,-3.4533,-3.4593,-3.4598,-3.4601,-3.4644,-3.4647,-3.468,-3.4674,-3.4718,-3.4727,-3.4718,-3.4752,-3.4739,-3.4775,-3.4767,-3.4836,-3.4823,-3.4832,-3.4828,-3.4879,-3.4874,-3.5048,-3.5069,-3.4912,-3.4913,-3.4915,0,-3.462,-3.466,-3.467,-3.4691,-3.4699,-3.4733,-3.4752,-3.4733,-3.4754,-3.4772,-3.4802,-3.4834,-3.4858,-3.4915,-3.4911,-3.4939,-3.4926,-3.4985,-3.493,-3.4935,-3.4926,-3.4923,-3.4927,-3.4996,-3.4998,-3.4999,-3.5,0,-3.4757,-3.4751,-3.4779,-3.4807,-3.4831,-3.4851,-3.4869,-3.4888,-3.487,-3.4895,-3.493,-3.4949,-3.4987,-3.5019,-3.5044,-3.5048,-3.5021,-3.5018,-3.5031,-3.5037,-3.504,-3.5038,-3.4861,-3.5014,-3.5012,-3.5011,-3.5011,-3.501,-3.4858,-3.4892,-3.4904,-3.4938,-3.4949,-3.4967,-3.4997,-3.4996,-3.5026,-3.5055,-3.5042,-3.5083,-3.5095,-3.5126,-3.5134,-3.5166,-3.5142,-3.5161,-3.5166,-3.5171,-3.5177,-3.5037,-3.517,-3.517,-3.5169,-3.5169,-3.5169,0,-3.4993,-3.4999,-3.503,-3.5056,-3.5083,-3.5057,-3.5075,-3.5098,-3.5135,-3.5149,-3.5174,-3.5214,-3.5245,-3.5245,-3.5273,-3.5299,-3.5287,-3.5307,-3.5304,-3.5305,-3.5196,-3.5182,-3.5315,-3.5315,-3.5315,-3.5315,-3.5315,-3.5315,-3.5066,-3.5121,-3.5117,-3.5178,-3.5183,-3.5224,-3.5237,-3.5252,-3.5263,-3.5311,-3.5336,-3.5336,-3.5344,-3.5373,-3.54,-3.5399,-3.5411,-3.5435,-3.5429,-3.5327,-3.5313,-3.5299,-3.5285,-3.5438,-3.5438,-3.5535,-3.5536,-3.5537]},{"header":{"parameterUnit":"m.s-1","parameterCategory":1,"la1":30.2991,"la2":30.254,"lo1":-89.0895,"lo2":-89.0444,"dy":0.0017,"dx":0.0017,"nx":28,"ny":28,"refTime":"2024-05-20T21:00:00:Z","depth":0,"parameterNumber":3,"parameterNumberName":"V-component_of_WINDS"},"data":[0,0,0,0,0,0,0,0,0,0,0,0,0,0,0,0,0,0,0,0,0,0,0,0,0,0,0,0,0,0,0,0,0,0,0,0,0,0,0,0,0,0,0,0,0,0,0,0,0,0,0,0,0,0,0,0,0,0,0.1468,0.1468,0,0.144,0.144,0.1439,0.1409,0.1408,0.1408,0.1407,0.1378,0.1378,0.1377,0,0,0,0,0,0,0,0,0,0,0,0,0,0.1496,0.1496,0.1468,0.1468,0.1468,0.144,0.144,0.1439,0.1409,0.1408,0.1408,0.1407,0.1378,0.1378,0.1377,0,0,0,0,0,0,0,0,0,0,0,0,0,0.1478,0.1496,0.1468,0.1449,0.1447,0.144,0.144,0.1439,0.1409,0.1408,0.1408,0.1407,0.1378,0.1378,0.1377,0.1387,0,0,0.1376,0.1375,0,0,0,0,0,0,0,0,0.1479,0.1477,0.1452,0.145,0.1448,0.1427,0.1439,0.1422,0.1409,0.1423,0.1407,0.1407,0.1395,0.1393,0.1389,0.1386,0.1384,0.1375,0.1375,0.1375,0.1375,0,0,0,0,0,0,0,0.148,0.1478,0.1457,0.1452,0.1449,0.1442,0.1439,0.1435,0.1413,0.1422,0.142,0.1417,0.1394,0.139,0.1388,0.1384,0.1376,0.1375,0.1375,0.1374,0.1389,0.139,0,0,0,0,0,0,0.1484,0.1479,0.1458,0.1456,0.1462,0.1442,0.1438,0.1435,0.1413,0.1409,0.1417,0.1416,0.1391,0.1389,0.1387,0.1398,0.1375,0.1374,0.1374,0.1388,0.1389,0.139,0,0,0,0,0,0,0.1485,0.1483,0.1459,0.1467,0.1463,0.1442,0.1438,0.1434,0.143,0.141,0.1406,0.1418,0.139,0.1388,0.1388,0.1397,0.1374,0.1374,0.1387,0.1388,0.1389,0.142,0,0,0,0,0,0,0.1486,0.1483,0.1486,0.1467,0.1463,0.146,0.1439,0.1434,0.143,0.1427,0.1409,0.1405,0.139,0.1389,0.1387,0.1396,0.1373,0.1386,0.1388,0.1389,0.1418,0.1422,0.1425,0,0,0,0,0,0.1487,0.1496,0.1487,0.1484,0.1467,0.1461,0.1458,0.1441,0.143,0.1434,0.1421,0.1406,0.1396,0.1389,0.1387,0.1395,0.1386,0.1387,0.1389,0.1416,0.1421,0.1425,0,0,0,0,0,0,0.1516,0.1493,0.1483,0.1485,0.1475,0.1456,0.1459,0.1446,0.1439,0.1436,0.1415,0.1411,0.1413,0.1404,0.1397,0.1404,0.1389,0.139,0.141,0.1415,0.1418,0.1421,0.1373,0,0,0,0,0,0.1523,0.1519,0.1499,0.1504,0.1499,0.148,0.1477,0.1464,0.1453,0.1449,0.1435,0.1425,0.142,0.1417,0.141,0.1417,0.1413,0.1422,0.1425,0.1428,0.143,0.1434,0.1438,0.1395,0.1395,0.1395,0,0,0.1536,0.1523,0.1523,0.1509,0.15,0.1498,0.1477,0.1475,0.1473,0.1448,0.1448,0.1438,0.1425,0.1428,0.1429,0.1421,0.1441,0.143,0.1433,0.1433,0.1436,0.144,0.1443,0.1396,0.1396,0.1396,0,0,0.156,0.155,0.1553,0.1544,0.1531,0.1518,0.1519,0.1502,0.1495,0.1494,0.1475,0.1473,0.1464,0.1456,0.1451,0.1474,0.146,0.1472,0.1491,0.1495,0.1499,0.1501,0.1511,0.1514,0.1474,0.1474,0.1474,0,0.1579,0.1575,0.1556,0.1556,0.1551,0.1529,0.1532,0.1525,0.151,0.1508,0.1498,0.1488,0.1477,0.1479,0.1485,0.1481,0.1482,0.1474,0.15,0.1502,0.1505,0.1513,0.1517,0.1475,0.1475,0.1475,0.1475,0,0.1599,0.1596,0.16,0.1588,0.1583,0.1585,0.1567,0.1565,0.1553,0.1542,0.1542,0.1529,0.152,0.152,0.1508,0.1521,0.1516,0.1504,0.1487,0.1511,0.1518,0.1521,0.1478,0.1477,0.1477,0.1476,0,0,0.1639,0.1617,0.1619,0.1614,0.1598,0.1596,0.1597,0.1589,0.1588,0.1579,0.158,0.1574,0.1563,0.1557,0.1544,0.1547,0.1568,0.1535,0.1534,0.1542,0.1582,0.1592,0.1596,0.1558,0.1559,0.1559,0.1583,0,0.1661,0.1662,0.1646,0.1651,0.1649,0.1629,0.163,0.1621,0.161,0.1607,0.1596,0.1592,0.1577,0.1574,0.1577,0.1565,0.1576,0.1563,0.156,0.156,0.1564,0.16,0.161,0.1633,0.1586,0.1587,0.1587,0,0.1686,0.1679,0.1685,0.167,0.1669,0.167,0.1662,0.1659,0.1649,0.1641,0.1636,0.1622,0.1622,0.1607,0.1608,0.16,0.1598,0.1592,0.1592,0.1592,0.1575,0.1601,0.164,0.1644,0.1591,0.1591,0.1591,0,0.1716,0.1708,0.1711,0.1707,0.1689,0.1691,0.1684,0.1673,0.167,0.1663,0.1661,0.1655,0.1651,0.1647,0.1631,0.1621,0.1635,0.1618,0.1629,0.1629,0.1633,0.1633,0.1673,0.1631,0.163,0.163,0.163,0,0.1742,0.1747,0.1724,0.1726,0.173,0.1712,0.1717,0.1708,0.1699,0.1699,0.1681,0.1681,0.1661,0.1659,0.1647,0.165,0.1649,0.1643,0.164,0.1645,0.1646,0.1643,0.1642,0.1631,0.1631,0.1631,0.1631,0,0.1777,0.1762,0.1764,0.1748,0.1744,0.1748,0.1734,0.1736,0.1725,0.1725,0.1724,0.1707,0.1704,0.1688,0.1681,0.1674,0.1682,0.1675,0.1685,0.1683,0.1696,0.1695,0.1736,0.1741,0.1695,0.1695,0.1696,0,0.1795,0.1798,0.1782,0.1781,0.1775,0.1773,0.177,0.1753,0.1751,0.174,0.1743,0.1739,0.1734,0.1731,0.1718,0.1713,0.1707,0.1721,0.1706,0.1711,0.1708,0.1708,0.1709,0.1725,0.1725,0.1726,0.1726,0,0.1828,0.1821,0.1818,0.1812,0.1809,0.1804,0.1797,0.1798,0.1779,0.1777,0.1774,0.1771,0.1765,0.1761,0.1755,0.1747,0.1734,0.1731,0.1734,0.1739,0.1746,0.1743,0.1695,0.173,0.173,0.173,0.1729,0.1729,0.1855,0.1858,0.1848,0.1845,0.1838,0.1833,0.1834,0.1824,0.1821,0.1815,0.1805,0.1804,0.1795,0.1784,0.1779,0.1778,0.177,0.1773,0.1774,0.1775,0.1778,0.1745,0.1776,0.1776,0.1776,0.1776,0.1776,0,0.1889,0.1882,0.1879,0.1872,0.187,0.1857,0.185,0.1849,0.1849,0.1841,0.1838,0.1835,0.1832,0.182,0.1815,0.1817,0.1811,0.1817,0.1817,0.1815,0.1785,0.1784,0.1822,0.1822,0.1822,0.1822,0.1822,0.1822,0.1906,0.191,0.1902,0.1902,0.1895,0.1894,0.1891,0.1887,0.1881,0.1879,0.1876,0.1868,0.1859,0.1854,0.1851,0.1848,0.1847,0.1855,0.185,0.1822,0.1817,0.1813,0.1812,0.1855,0.1855,0.188,0.188,0.1881]}]]